Tracking 29892 objects as of 21-Nov-2024
HD Live streaming from Space Station
objects crossing your sky now

STARLINK-5156

Track STARLINK-5156 now!
10-day predictions
STARLINK-5156 is classified as:


NORAD ID: 53973
Int'l Code: 2022-125K
Perigee: 545.9 km
Apogee: 547.9 km
Inclination: 53.2 °
Period: 95.4 minutes
Semi major axis: 6917 km
RCS: Unknown
Launch date: October 5, 2022
Source: United States (US)
Launch site: AIR FORCE WESTERN TEST RANGE (AFWTR)
Your satellite tracking list
Your tracking list is empty




NASA's NSSDC Master Catalog

Two Line Element Set (TLE):
1 53973U 22125K   24326.00570555 -.00000933  00000-0 -40561-4 0  9990
2 53973  53.2161 190.4480 0001482  84.6590 275.4572 15.08836256117881
Source of the keplerian elements: AFSPC